Simultaneous Nadir Overpasses (SNOs) Predictions

Prediction of SNOs between GOES-15 and NPP Satellite Orbit:

Table of predicted SNOs for the next 14.0 days since TLE Epoch: 9/28/2024
Index Date Time (GOES-15) GOES-15 Lat,Lon NPP Lat,Lon Distance(km) Time Diff (sec)
1 09/28/2024 21:38:55 0.28, 61.30 1.27, 56.99 492.18 80
2 09/29/2024 21:17:28 0.29, 61.30 0.23, 61.52 25.34 80
3 10/02/2024 09:20:34 -0.28, 61.26 -0.39, 60.77 55.89 80
4 10/03/2024 09:04:26 -0.29, 61.26 0.60, 65.32 462.47 80
5 10/04/2024 21:26:11 0.26, 61.28 0.57, 60.06 139.97 80
6 10/05/2024 21:04:44 0.28, 61.29 -0.49, 64.60 377.16 80
7 10/07/2024 09:26:37 -0.25, 61.28 -0.68, 59.31 224.39 80
8 10/08/2024 09:10:29 -0.26, 61.28 0.32, 63.85 293.15 80
9 10/09/2024 21:32:13 0.24, 61.31 0.83, 58.59 309.05 80
10 10/10/2024 21:10:46 0.25, 61.32 -0.18, 63.14 207.18 80
